period_start,C,m1,H,J0,J1,J2,J3,J4,J5,JA,JB,JC,JD,JJ,JK,JN,#
2016-01-21 00:03:06,0.19,4.61,0.00,14.33,18.79,22.49,15.40,50.39,1038.08,2064.97,2141.55,2147.36,2404.51,600.33,627.30,51.72,0000 0000 0000 0000 000000
2016-01-21 00:08:07,0.20,4.62,0.00,14.31,18.79,22.48,15.33,50.26,1037.97,2064.95,2139.42,2145.62,2402.52,599.81,626.92,51.77,0000 0000 0000 0000 000000
2016-01-21 00:13:09,0.19,4.63,0.00,14.31,18.79,22.49,15.38,50.16,1037.97,2064.87,2137.22,2143.88,2400.58,600.34,627.14,51.82,0000 0000 0000 0000 000000
2016-01-21 00:18:10,0.20,4.64,0.00,14.33,18.79,22.49,15.29,50.10,1037.83,2064.96,2135.11,2142.21,2398.70,599.93,626.78,51.87,0000 0000 0000 0000 000000
2016-01-21 00:23:12,0.21,4.65,0.00,14.33,18.79,22.48,15.36,50.11,1038.10,2064.95,2132.85,2140.45,2396.66,600.15,627.14,51.93,0000 0000 0000 0000 000000
2016-01-21 00:28:13,0.23,4.66,0.00,14.33,18.79,22.45,15.27,50.15,1038.10,2064.97,2130.45,2138.62,2394.56,599.59,626.57,51.98,0000 0000 0000 0000 000000
2016-01-21 00:33:14,0.23,4.67,0.00,14.34,18.78,22.49,15.34,50.10,1038.10,2064.96,2128.05,2136.76,2392.44,599.90,626.94,52.03,0000 0000 0000 0000 000000
2016-01-21 00:38:16,0.21,4.68,0.00,14.34,18.78,22.42,15.32,50.12,1038.09,2064.95,2125.63,2134.84,2390.31,600.06,626.99,52.08,0000 0000 0000 0000 000000
2016-01-21 00:43:17,0.20,4.69,0.00,14.35,18.78,22.43,15.36,50.07,1038.03,2064.97,2123.46,2133.10,2388.35,599.83,626.76,52.13,0000 0000 0000 0000 000000
2016-01-21 00:48:18,0.22,4.71,0.00,14.38,18.78,22.51,15.33,50.14,1038.03,2064.97,2121.10,2131.22,2386.22,599.97,626.86,52.18,0000 0000 0000 0000 000000
2016-01-21 00:53:20,0.22,4.72,0.00,14.39,18.78,22.48,15.29,50.16,1038.02,2064.98,2118.80,2129.37,2384.15,599.87,626.62,52.23,0000 0000 0000 0000 000000
2016-01-21 00:58:21,0.22,4.73,0.00,14.39,18.78,22.49,15.31,50.12,1038.08,2064.95,2116.42,2127.53,2382.04,599.88,626.60,52.28,0000 0000 0000 0000 000000
2016-01-21 01:03:22,0.21,4.74,0.00,14.42,18.79,22.46,15.38,50.14,1038.01,2064.97,2114.25,2125.78,2380.05,599.99,626.63,52.33,0000 0000 0000 0000 000000
2016-01-21 01:08:24,0.19,4.75,0.00,14.40,18.79,22.52,15.41,50.21,1038.06,2064.94,2112.08,2124.04,2378.09,600.16,626.93,52.38,0000 0000 0000 0000 000000
2016-01-21 01:13:25,0.19,4.76,0.00,14.41,18.79,22.52,15.35,50.41,1037.98,2064.96,2110.17,2122.38,2376.18,599.82,626.56,52.43,0000 0000 0000 0000 000000
2016-01-21 01:18:27,0.22,4.77,0.00,14.44,18.79,22.49,15.36,50.53,1037.70,2064.98,2107.83,2120.54,2374.12,600.12,626.57,52.48,0000 0000 0000 0000 000000
2016-01-21 01:23:28,0.21,4.78,0.00,14.44,18.79,22.51,15.39,50.63,1037.63,2064.90,2105.50,2118.67,2372.04,600.16,626.63,52.53,0000 0000 0000 0000 000000
2016-01-21 01:28:29,0.22,4.79,0.00,14.44,18.79,22.56,15.37,50.53,1037.62,2064.91,2103.22,2116.89,2370.01,600.35,626.69,52.58,0000 0000 0000 0000 000000
2016-01-21 01:33:30,0.21,4.81,0.00,14.46,18.79,22.53,15.33,50.49,1037.90,2064.97,2100.97,2115.15,2367.98,599.60,626.16,52.63,0000 0000 0000 0000 000000
2016-01-21 01:38:32,0.20,4.81,0.00,14.44,18.79,22.54,15.33,50.15,1037.94,2064.97,2098.77,2113.37,2366.11,599.73,626.38,52.68,0000 0000 0000 0000 000000
2016-01-21 01:43:33,0.21,4.83,0.00,14.42,18.79,22.52,15.32,50.06,1037.82,2064.95,2096.60,2111.58,2364.19,599.96,626.50,52.73,0000 0000 0000 0000 000000
2016-01-21 01:48:35,0.22,4.84,0.00,14.43,18.79,22.52,15.30,50.15,1037.70,2064.97,2094.25,2109.97,2362.13,599.80,626.20,52.78,0000 0000 0000 0000 000000
2016-01-21 01:53:36,0.21,4.85,0.00,14.47,18.79,22.54,15.41,50.27,1037.61,2064.95,2091.92,2108.09,2360.03,600.16,626.57,52.84,0000 0000 0000 0000 000000
2016-01-21 01:58:37,0.21,4.86,0.00,14.46,18.80,22.52,15.33,50.25,1037.56,2064.93,2089.65,2106.30,2358.02,599.73,626.07,52.89,0000 0000 0000 0000 000000
2016-01-21 02:03:38,0.22,4.87,0.00,14.46,18.81,22.55,15.45,50.39,1037.33,2064.93,2087.42,2104.44,2355.99,600.28,626.64,52.94,0000 0000 0000 0000 000000
2016-01-21 02:08:40,0.23,4.88,0.00,14.48,18.82,22.61,15.44,50.46,1037.22,2064.95,2085.14,2102.62,2353.93,600.06,626.22,52.99,0000 0000 0000 0000 000000
2016-01-21 02:13:41,0.21,4.89,0.00,14.50,18.82,22.56,15.34,50.38,1037.21,2064.96,2082.91,2100.79,2351.99,599.73,625.80,53.04,0000 0000 0000 0000 000000
2016-01-21 02:18:43,0.23,4.90,0.00,14.49,18.84,22.57,15.36,50.35,1037.13,2064.97,2080.55,2098.98,2349.92,600.21,626.23,53.09,0000 0000 0000 0000 000000
2016-01-21 02:23:44,0.22,4.92,0.00,14.52,18.84,22.62,15.37,50.71,1037.13,2064.96,2078.14,2097.08,2347.68,600.17,626.04,53.14,0000 0000 0000 0000 000000
2016-01-21 02:28:45,0.26,4.93,0.00,14.53,18.87,22.65,15.29,50.55,1037.01,2064.95,2075.51,2095.07,2345.40,599.97,625.78,53.19,0000 0000 0000 0000 000000
2016-01-21 02:33:46,0.24,4.94,0.00,14.55,18.87,22.68,15.31,50.16,1036.82,2064.92,2072.96,2092.95,2343.13,599.88,625.54,53.24,0000 0000 0000 0000 000000
2016-01-21 02:38:47,0.27,4.95,0.00,14.58,18.89,22.69,15.34,50.47,1036.72,2064.85,2070.25,2090.87,2340.68,599.98,625.70,53.29,0000 0000 0000 0000 000000
2016-01-21 02:43:49,0.25,4.97,0.00,14.59,18.89,22.69,15.32,50.48,1036.72,2064.75,2067.48,2088.63,2338.23,599.72,625.29,53.34,0000 0000 0000 0000 000000
2016-01-21 02:48:50,0.21,4.98,0.00,14.59,18.92,22.74,15.22,50.41,1036.66,2064.44,2064.85,2086.51,2335.87,599.55,625.12,53.39,0000 0000 0000 0000 000000
2016-01-21 02:53:52,0.26,4.99,0.00,14.61,18.92,22.75,15.29,50.28,1036.65,2064.44,2062.30,2084.41,2333.48,599.88,625.38,53.44,0000 0000 0000 0000 000000
2016-01-21 02:58:53,0.23,5.01,0.00,14.63,18.94,22.72,15.35,50.40,1036.58,2064.34,2059.62,2082.28,2331.07,600.03,625.36,53.49,0000 0000 0000 0000 000000
2016-01-21 03:03:54,0.26,5.02,0.00,14.64,18.95,22.72,15.26,50.43,1036.65,2064.11,2056.93,2080.14,2328.60,599.94,625.45,53.54,0000 0000 0000 0000 000000
2016-01-21 03:08:56,0.27,5.03,0.00,14.66,18.97,22.79,15.32,50.52,1036.64,2064.06,2054.05,2077.95,2326.15,599.89,625.33,53.59,0000 0000 0000 0000 000000
2016-01-21 03:13:57,0.27,5.05,0.00,14.69,18.98,22.77,15.34,50.71,1036.60,2064.06,2051.29,2075.60,2323.49,599.95,625.24,53.65,0000 0000 0000 0000 000000
2016-01-21 03:18:59,0.30,5.06,0.00,14.70,18.99,22.78,15.28,51.01,1036.49,2064.03,2048.54,2073.14,2320.87,599.77,625.02,53.70,0000 0000 0000 0000 000000
2016-01-21 03:24:00,0.43,5.08,0.00,14.72,19.02,22.84,15.28,50.96,1036.41,2064.02,2045.21,2069.25,2316.61,600.26,625.40,53.75,0000 0000 0000 0000 000000
2016-01-21 03:29:01,0.29,5.10,0.00,14.73,19.02,22.80,15.34,50.78,1036.60,2064.02,2042.39,2066.63,2313.77,600.15,625.37,53.80,0000 0000 0000 0000 000000
2016-01-21 03:34:02,0.25,5.11,0.00,14.75,19.04,22.82,15.29,50.81,1036.59,2064.01,2039.93,2064.51,2311.35,599.90,625.08,53.85,0000 0000 0000 0000 000000
2016-01-21 03:39:03,0.26,5.12,0.00,14.78,19.05,22.82,15.34,50.52,1036.66,2064.00,2037.44,2062.45,2309.06,600.03,625.20,53.90,0000 0000 0000 0000 000000
2016-01-21 03:44:05,0.25,5.14,0.00,14.80,19.07,22.86,15.35,50.67,1036.64,2064.00,2035.03,2060.44,2306.68,600.00,625.16,53.95,0000 0000 0000 0000 000000
2016-01-21 03:49:06,0.25,5.15,0.00,14.82,19.07,22.84,15.23,50.67,1036.63,2064.00,2032.53,2058.40,2304.32,599.85,624.90,54.00,0000 0000 0000 0000 000000
2016-01-21 03:54:08,0.26,5.16,0.00,14.82,19.08,22.82,15.39,50.51,1036.68,2063.99,2029.94,2056.22,2302.06,600.02,625.06,54.05,0000 0000 0000 0000 000000
2016-01-21 03:59:09,0.29,5.18,0.00,14.82,19.09,22.86,15.29,50.61,1036.95,2063.99,2027.01,2054.02,2299.58,599.95,625.14,54.10,0000 0000 0000 0000 000000
2016-01-21 04:04:10,0.24,5.19,0.00,14.85,19.09,22.87,15.29,50.66,1037.02,2063.97,2024.46,2051.98,2297.24,600.10,625.29,54.15,0000 0000 0000 0000 000000
2016-01-21 04:09:12,0.30,5.20,0.00,14.85,19.11,22.89,15.30,50.88,1036.39,2063.96,2021.60,2049.75,2294.70,599.87,624.69,54.20,0000 0000 0000 0000 000000
2016-01-21 04:14:13,0.32,5.22,0.00,14.88,19.12,22.87,15.27,51.18,1035.69,2063.97,2018.61,2047.29,2291.91,599.97,624.39,54.25,0000 0000 0000 0000 000000
2016-01-21 04:19:14,0.40,5.24,0.00,14.89,19.13,22.91,15.28,51.08,1035.56,2063.97,2014.93,2044.32,2288.51,600.00,624.11,54.30,0000 0000 0000 0000 000000
2016-01-21 04:24:16,0.28,5.26,0.00,14.88,19.14,22.91,15.36,50.94,1035.59,2063.99,2012.13,2041.73,2285.65,600.27,624.50,54.35,0000 0000 0000 0000 000000
2016-01-21 04:29:17,0.26,5.27,0.00,14.88,19.15,22.93,15.24,50.51,1036.01,2063.96,2009.47,2039.67,2283.18,599.95,624.46,54.40,0000 0000 0000 0000 000000
2016-01-21 04:34:18,0.27,5.28,0.00,14.89,19.17,22.92,15.28,50.41,1036.62,2063.94,2006.95,2037.54,2280.70,599.95,624.83,54.45,0000 0000 0000 0000 000000
2016-01-21 04:39:19,0.23,5.30,0.00,14.89,19.17,22.95,15.28,50.36,1036.70,2063.80,2004.35,2035.47,2278.28,599.97,624.80,54.50,0000 0000 0000 0000 000000
2016-01-21 04:44:21,0.26,5.31,0.00,14.91,19.19,22.98,15.38,50.46,1036.64,2063.68,2001.92,2033.36,2275.99,599.99,624.83,54.55,0000 0000 0000 0000 000000
2016-01-21 04:49:23,0.20,5.32,0.00,14.92,19.20,23.01,15.35,50.70,1036.66,2063.50,1999.73,2031.37,2273.80,600.10,624.86,54.61,0000 0000 0000 0000 000000
2016-01-21 04:54:24,0.24,5.33,0.00,14.92,19.22,23.01,15.35,50.58,1036.34,2063.12,1997.09,2029.19,2271.40,600.02,624.68,54.66,0000 0000 0000 0000 000000
2016-01-21 04:59:25,0.29,5.35,0.00,14.93,19.24,23.02,15.31,50.51,1036.23,2063.05,1994.24,2026.86,2268.63,599.79,624.36,54.71,0000 0000 0000 0000 000000
2016-01-21 05:04:27,0.24,5.36,0.00,14.93,19.25,23.02,15.27,50.57,1036.48,2063.03,1991.99,2024.91,2266.46,599.97,624.67,54.76,0000 0000 0000 0000 000000
2016-01-21 05:09:28,0.26,5.37,0.00,14.96,19.27,23.05,15.40,50.42,1036.63,2063.01,1989.55,2022.90,2264.22,600.37,625.12,54.81,0000 0000 0000 0000 000000
2016-01-21 05:14:29,0.27,5.39,0.00,14.97,19.27,23.06,15.29,50.81,1036.17,2063.00,1986.92,2020.75,2261.78,600.08,624.48,54.86,0000 0000 0000 0000 000000
2016-01-21 05:19:30,0.33,5.40,0.00,15.01,19.29,23.02,15.38,51.16,1035.71,2063.00,1983.96,2018.12,2258.89,600.18,624.28,54.91,0000 0000 0000 0000 000000
2016-01-21 05:24:32,0.29,5.42,0.00,15.02,19.29,23.01,15.37,51.16,1035.64,2063.00,1981.37,2015.84,2256.36,600.12,624.14,54.96,0000 0000 0000 0000 000000
2016-01-21 05:29:33,0.29,5.43,0.00,15.02,19.30,23.05,15.30,51.27,1035.63,2063.00,1978.62,2013.46,2253.76,599.82,623.76,55.01,0000 0000 0000 0000 000000
2016-01-21 05:34:34,0.28,5.45,0.00,15.00,19.32,23.06,15.29,50.94,1035.66,2063.00,1976.03,2011.17,2251.19,599.89,623.96,55.06,0000 0000 0000 0000 000000
2016-01-21 05:39:36,0.24,5.46,0.00,15.01,19.32,23.08,15.31,50.93,1035.95,2062.99,1973.78,2009.11,2248.89,600.09,624.24,55.11,0000 0000 0000 0000 000000
2016-01-21 05:44:37,0.23,5.47,0.00,15.01,19.32,23.09,15.26,50.48,1035.82,2062.98,1971.63,2007.32,2246.83,600.01,624.14,55.16,0000 0000 0000 0000 000000
2016-01-21 05:49:38,0.27,5.49,0.00,14.99,19.32,23.07,15.21,50.67,1035.60,2062.97,1969.07,2005.30,2244.54,599.84,623.89,55.21,0000 0000 0000 0000 000000
2016-01-21 05:54:40,0.32,5.50,0.00,14.99,19.34,23.07,15.37,50.81,1035.56,2062.98,1966.14,2002.87,2241.81,600.11,624.12,55.26,0000 0000 0000 0000 000000
2016-01-21 05:59:41,0.49,5.52,0.00,15.00,19.34,23.06,15.31,51.15,1035.50,2062.97,1962.66,1999.41,2238.17,600.39,624.36,55.31,0000 0000 0000 0000 000000
2016-01-21 06:04:42,0.44,5.55,0.00,15.01,19.34,23.08,15.29,51.23,1035.54,2062.98,1958.95,1994.93,2233.69,599.90,623.90,55.36,0000 0000 0000 0000 000000
2016-01-21 06:09:44,0.26,5.56,0.00,15.02,19.35,23.14,15.30,51.10,1035.62,2062.98,1956.56,1992.43,2230.87,599.97,623.95,55.41,0000 0000 0000 0000 000000
2016-01-21 06:14:45,0.31,5.58,0.00,15.02,19.36,23.08,15.31,50.77,1035.55,2062.97,1954.02,1990.16,2228.33,600.02,624.09,55.47,0000 0000 0000 0000 000000
2016-01-21 06:19:47,0.30,5.60,0.00,15.01,19.37,23.05,15.39,51.12,1035.20,2062.97,1951.24,1987.73,2225.57,600.29,624.00,55.52,0000 0000 0000 0000 000000
2016-01-21 06:24:48,0.31,5.61,0.00,15.02,19.37,23.10,15.29,50.96,1034.92,2062.95,1948.38,1985.40,2222.93,600.09,623.64,55.57,0000 0000 0000 0000 000000
2016-01-21 06:29:49,0.47,5.63,0.00,15.02,19.37,23.05,15.30,51.01,1034.78,2062.92,1945.04,1981.87,2218.98,600.04,623.49,55.62,0000 0000 0000 0000 000000
2016-01-21 06:34:51,0.33,5.65,0.00,15.03,19.37,23.07,15.30,50.95,1034.92,2062.88,1942.12,1978.68,2215.50,600.15,623.71,55.67,0000 0000 0000 0000 000000
2016-01-21 06:39:52,0.35,5.67,0.00,15.02,19.39,23.07,15.31,51.18,1034.72,2062.90,1939.20,1975.91,2212.53,600.11,623.68,55.72,0000 0000 0000 0000 000000
2016-01-21 06:44:53,0.54,5.69,0.00,15.00,19.38,23.06,15.43,51.57,1034.88,2062.88,1935.64,1972.00,2208.42,600.21,623.80,55.77,0000 0000 0000 0000 000000
2016-01-21 06:49:55,0.46,5.72,0.00,15.00,19.38,23.12,15.32,51.42,1035.14,2062.91,1931.89,1967.56,2203.81,599.92,623.72,55.82,0000 0000 0000 0000 000000
2016-01-21 06:54:56,0.35,5.74,0.00,14.97,19.38,23.05,15.29,51.13,1035.30,2062.89,1928.99,1964.50,2200.70,599.91,623.86,55.87,0000 0000 0000 0000 000000
2016-01-21 06:59:57,0.35,5.76,0.00,14.94,19.37,23.09,15.33,51.00,1035.68,2062.86,1926.11,1961.65,2197.59,599.86,624.05,55.92,0000 0000 0000 0000 000000
2016-01-21 07:04:59,0.32,5.77,0.00,14.92,19.37,23.06,15.33,50.94,1035.75,2062.82,1923.43,1959.08,2194.83,599.80,624.18,55.97,0000 0000 0000 0000 000000
2016-01-21 07:10:00,0.27,5.79,0.00,14.89,19.37,23.06,15.30,50.83,1035.71,2062.83,1921.13,1956.84,2192.46,599.92,624.12,56.02,0000 0000 0000 0000 000000
2016-01-21 07:15:01,0.28,5.80,0.00,14.89,19.37,23.03,15.25,50.88,1035.66,2062.89,1919.00,1954.67,2190.12,599.96,624.21,56.07,0000 0000 0000 0000 000000
2016-01-21 07:20:03,0.25,5.81,0.00,14.91,19.37,23.02,15.26,50.74,1035.52,2062.87,1916.67,1952.58,2187.87,600.14,624.36,56.12,0000 0000 0000 0000 000000
2016-01-21 07:25:04,0.27,5.83,0.00,14.90,19.35,23.06,15.25,50.94,1035.26,2062.91,1914.32,1950.53,2185.61,599.87,623.88,56.17,0000 0000 0000 0000 000000
2016-01-21 07:30:05,0.30,5.84,0.00,14.89,19.34,22.99,15.38,50.98,1035.17,2062.92,1911.92,1948.38,2183.29,600.19,624.19,56.22,0000 0000 0000 0000 000000
2016-01-21 07:35:06,0.28,5.86,0.00,14.89,19.34,22.99,15.26,50.85,1034.85,2062.95,1909.40,1946.26,2180.90,599.65,623.44,56.27,0000 0000 0000 0000 000000
2016-01-21 07:40:08,0.28,5.87,0.00,14.87,19.34,23.03,15.30,50.90,1034.39,2062.96,1907.00,1944.19,2178.54,599.76,623.36,56.32,0000 0000 0000 0000 000000
2016-01-21 07:45:09,0.29,5.89,0.00,14.89,19.34,23.02,15.35,50.88,1034.06,2062.97,1904.56,1941.90,2176.19,600.34,623.64,56.38,0000 0000 0000 0000 000000
2016-01-21 07:50:10,0.46,5.91,0.00,14.90,19.32,23.04,15.34,51.14,1033.61,2062.98,1901.44,1938.85,2172.94,600.27,623.26,56.43,0000 0000 0000 0000 000000
2016-01-21 07:55:11,0.36,5.93,0.00,14.89,19.32,23.02,15.25,51.02,1033.31,2062.98,1898.14,1935.48,2169.32,600.04,622.94,56.48,0000 0000 0000 0000 000000
2016-01-21 08:00:13,0.36,5.95,0.00,14.87,19.32,23.02,15.25,50.94,1033.59,2062.98,1895.36,1932.65,2166.37,599.66,622.82,56.53,0000 0000 0000 0000 000000
2016-01-21 08:05:14,0.31,5.96,0.00,14.84,19.32,23.05,15.28,50.69,1033.71,2062.99,1892.79,1930.16,2163.65,599.62,622.90,56.58,0000 0000 0000 0000 000000
2016-01-21 08:10:15,0.27,5.98,0.00,14.82,19.31,23.02,15.31,50.61,1033.71,2062.99,1890.46,1927.97,2161.36,600.08,623.20,56.63,0000 0000 0000 0000 000000
2016-01-21 08:15:16,0.29,5.99,0.00,14.81,19.29,23.01,15.30,50.67,1033.77,2062.99,1888.05,1925.74,2158.94,599.72,623.04,56.68,0000 0000 0000 0000 000000
2016-01-21 08:20:18,0.26,6.01,0.00,14.79,19.29,22.97,15.31,50.63,1033.97,2062.98,1885.78,1923.67,2156.75,599.88,623.31,56.73,0000 0000 0000 0000 000000
2016-01-21 08:25:19,0.27,6.02,0.00,14.82,19.29,22.98,15.25,50.70,1033.99,2062.99,1883.50,1921.70,2154.57,599.69,623.13,56.78,0000 0000 0000 0000 000000
2016-01-21 08:30:20,0.23,6.03,0.00,14.81,19.29,23.01,15.32,50.64,1033.92,2062.99,1881.26,1919.91,2152.44,600.23,623.73,56.83,0000 0000 0000 0000 000000
2016-01-21 08:35:22,0.24,6.05,0.00,14.82,19.27,22.93,15.33,50.60,1034.16,2062.99,1879.19,1918.18,2150.49,600.08,623.63,56.88,0000 0000 0000 0000 000000
2016-01-21 08:40:23,0.24,6.06,0.00,14.87,19.27,22.96,15.27,50.52,1034.12,2062.99,1877.03,1916.52,2148.59,599.91,623.31,56.93,0000 0000 0000 0000 000000
2016-01-21 08:45:25,0.27,6.07,0.00,14.87,19.27,22.97,15.23,50.78,1033.75,2062.99,1874.93,1914.56,2146.49,599.78,623.05,56.98,0000 0000 0000 0000 000000
2016-01-21 08:50:26,0.25,6.09,0.00,14.89,19.27,22.98,15.25,50.83,1033.91,2062.99,1872.79,1912.55,2144.34,599.88,623.15,57.03,0000 0000 0000 0000 000000
2016-01-21 08:55:28,0.25,6.10,0.00,14.91,19.26,22.95,15.25,50.83,1034.06,2062.99,1870.78,1910.78,2142.33,600.06,623.33,57.08,0000 0000 0000 0000 000000
2016-01-21 09:00:29,0.23,6.11,0.00,14.94,19.25,22.97,15.32,50.79,1033.77,2062.99,1868.72,1909.09,2140.52,600.27,623.33,57.13,0000 0000 0000 0000 000000
2016-01-21 09:05:30,0.25,6.12,0.00,14.94,19.25,22.97,15.26,50.73,1033.71,2062.99,1866.42,1907.32,2138.49,600.19,623.19,57.18,0000 0000 0000 0000 000000
2016-01-21 09:10:31,0.24,6.13,0.00,14.92,19.25,22.96,15.24,50.83,1033.71,2062.99,1864.37,1905.69,2136.64,599.86,622.90,57.24,0000 0000 0000 0000 000000
2016-01-21 09:15:33,0.22,6.15,0.00,14.93,19.25,22.95,15.26,50.84,1033.78,2062.99,1862.35,1904.04,2134.78,600.13,623.18,57.29,0000 0000 0000 0000 000000
2016-01-21 09:20:34,0.22,6.16,0.00,14.94,19.25,22.96,15.28,50.67,1033.92,2062.99,1860.45,1902.46,2132.95,600.02,623.12,57.34,0000 0000 0000 0000 000000
2016-01-21 09:25:36,0.21,6.17,0.00,14.94,19.27,22.96,15.22,50.75,1033.77,2062.99,1858.64,1900.91,2131.27,599.71,622.80,57.39,0000 0000 0000 0000 000000
2016-01-21 09:30:36,0.21,6.18,0.00,14.97,19.27,23.00,15.32,50.87,1033.67,2062.99,1856.74,1899.40,2129.57,600.05,623.01,57.44,0000 0000 0000 0000 000000
2016-01-21 09:35:38,0.26,6.19,0.00,14.97,19.27,22.98,15.31,51.23,1033.26,2062.99,1854.63,1897.65,2127.60,599.86,622.53,57.49,0000 0000 0000 0000 000000
2016-01-21 09:40:39,0.24,6.21,0.00,14.96,19.27,22.97,15.31,51.13,1033.21,2062.99,1852.58,1895.88,2125.63,599.97,622.70,57.54,0000 0000 0000 0000 000000
2016-01-21 09:45:40,0.22,6.22,0.00,14.97,19.27,23.01,15.36,51.14,1033.23,2062.99,1850.59,1894.20,2123.72,600.23,622.84,57.59,0000 0000 0000 0000 000000
2016-01-21 09:50:41,0.24,6.23,0.00,14.96,19.27,23.01,15.33,51.03,1033.25,2062.99,1848.76,1892.53,2121.96,600.17,622.88,57.64,0000 0000 0000 0000 000000
2016-01-21 09:55:42,0.25,6.24,0.00,14.95,19.27,22.99,15.31,51.02,1033.23,2062.99,1846.72,1890.62,2119.87,600.32,623.02,57.69,0000 0000 0000 0000 000000
2016-01-21 10:00:44,0.20,6.25,0.00,14.94,19.27,22.99,15.21,50.67,1033.23,2062.99,1844.88,1889.20,2118.26,599.69,622.50,57.74,0000 0000 0000 0000 000000
2016-01-21 10:05:45,0.24,6.26,0.00,14.94,19.27,22.98,15.32,50.69,1033.36,2062.99,1842.81,1887.66,2116.48,599.99,622.74,57.79,0000 0000 0000 0000 000000
2016-01-21 10:10:46,0.24,6.28,0.00,14.94,19.27,23.00,15.33,50.65,1033.30,2062.99,1840.77,1885.95,2114.62,599.98,622.75,57.84,0000 0000 0000 0000 000000
2016-01-21 10:15:48,0.24,6.29,0.00,14.93,19.28,23.01,15.31,51.05,1033.21,2062.99,1838.62,1884.24,2112.69,600.14,622.96,57.89,0000 0000 0000 0000 000000
2016-01-21 10:20:49,0.23,6.30,0.00,14.93,19.29,23.03,15.30,51.19,1033.19,2062.98,1836.66,1882.67,2110.97,600.19,622.99,57.94,0000 0000 0000 0000 000000
2016-01-21 10:25:50,0.22,6.31,0.00,14.95,19.29,23.00,15.34,51.30,1033.02,2062.99,1834.68,1881.10,2109.45,599.99,622.59,57.99,0000 0000 0000 0000 000000
2016-01-21 10:30:52,0.25,6.33,0.00,14.95,19.30,23.03,15.26,51.21,1032.86,2062.99,1832.66,1879.49,2107.46,600.13,622.63,58.04,0000 0000 0000 0000 000000
2016-01-21 10:35:53,0.25,6.34,0.00,14.92,19.32,23.05,15.30,51.29,1032.85,2062.98,1830.56,1877.74,2105.50,600.22,622.66,58.10,0000 0000 0000 0000 000000
2016-01-21 10:40:54,0.24,6.35,0.00,14.91,19.32,23.03,15.39,51.38,1032.74,2062.97,1828.55,1875.99,2103.57,600.17,622.64,58.15,0000 0000 0000 0000 000000
2016-01-21 10:45:55,0.24,6.36,0.00,14.91,19.32,23.02,15.24,51.35,1032.74,2062.98,1826.52,1874.42,2101.70,600.03,622.35,58.20,0000 0000 0000 0000 000000
2016-01-21 10:50:56,0.23,6.37,0.00,14.90,19.32,23.05,15.27,51.08,1033.00,2062.97,1824.69,1872.76,2099.95,600.14,622.86,58.25,0000 0000 0000 0000 000000
2016-01-21 10:55:57,0.21,6.39,0.00,14.89,19.33,23.07,15.31,51.02,1033.20,2062.98,1822.83,1871.35,2098.25,600.16,622.96,58.30,0000 0000 0000 0000 000000
2016-01-21 11:00:59,0.24,6.40,0.00,14.89,19.34,23.06,15.25,50.83,1033.22,2062.99,1820.79,1869.75,2096.50,599.98,622.86,58.35,0000 0000 0000 0000 000000
2016-01-21 11:06:00,0.22,6.41,0.00,14.91,19.34,23.11,15.33,50.97,1033.15,2062.98,1818.82,1868.24,2094.76,599.97,622.74,58.40,0000 0000 0000 0000 000000
2016-01-21 11:11:02,0.26,6.42,0.00,14.89,19.34,23.08,15.31,51.09,1033.12,2062.98,1816.73,1866.60,2092.86,600.15,622.92,58.45,0000 0000 0000 0000 000000
2016-01-21 11:16:03,0.24,6.43,0.00,14.89,19.35,23.05,15.28,50.98,1033.12,2062.97,1814.62,1864.95,2091.03,600.03,622.84,58.50,0000 0000 0000 0000 000000
2016-01-21 11:21:04,0.24,6.45,0.00,14.90,19.36,23.04,15.20,51.05,1032.96,2062.98,1812.48,1863.33,2089.18,599.82,622.56,58.55,0000 0000 0000 0000 000000
2016-01-21 11:26:06,0.29,6.46,0.00,14.89,19.37,23.10,15.23,51.01,1032.74,2062.96,1810.10,1861.44,2087.05,599.99,622.55,58.60,0000 0000 0000 0000 000000
2016-01-21 11:31:06,0.30,6.48,0.00,14.90,19.37,23.07,15.22,51.04,1032.73,2062.96,1807.57,1859.38,2084.83,600.01,622.60,58.65,0000 0000 0000 0000 000000
2016-01-21 11:36:08,0.28,6.49,0.00,14.92,19.37,23.07,15.22,50.96,1032.72,2062.97,1805.20,1857.47,2082.66,599.73,622.25,58.70,0000 0000 0000 0000 000000
2016-01-21 11:41:09,0.28,6.50,0.00,14.92,19.38,23.09,15.22,50.94,1032.57,2062.98,1802.75,1855.63,2080.48,599.90,622.24,58.75,0000 0000 0000 0000 000000
2016-01-21 11:46:10,0.28,6.52,0.00,14.95,19.39,23.08,15.29,50.89,1032.50,2062.96,1800.24,1853.90,2078.31,600.03,622.26,58.80,0000 0000 0000 0000 000000
2016-01-21 11:51:11,0.27,6.53,0.00,14.97,19.39,23.13,15.29,50.96,1032.39,2062.96,1797.79,1852.07,2076.23,600.10,622.21,58.85,0000 0000 0000 0000 000000
2016-01-21 11:56:13,0.30,6.55,0.00,14.95,19.39,23.17,15.30,50.90,1032.25,2062.97,1795.27,1850.18,2074.03,599.97,622.02,58.90,0000 0000 0000 0000 000000
2016-01-21 12:01:14,0.30,6.56,0.00,14.97,19.40,23.12,15.25,51.14,1032.32,2062.97,1792.88,1848.23,2071.80,600.04,622.04,58.95,0000 0000 0000 0000 000000
2016-01-21 12:06:15,0.29,6.58,0.00,15.01,19.42,23.12,15.24,50.92,1032.30,2062.97,1790.48,1846.25,2069.53,600.10,622.11,59.00,0000 0000 0000 0000 000000
2016-01-21 12:11:16,0.27,6.59,0.00,15.02,19.42,23.14,15.31,51.09,1032.24,2062.82,1788.18,1844.28,2067.36,600.15,622.07,59.06,0000 0000 0000 0000 000000
2016-01-21 12:16:17,0.28,6.61,0.00,15.04,19.44,23.16,15.31,51.01,1032.24,2062.67,1785.65,1842.31,2065.09,600.17,622.06,59.11,0000 0000 0000 0000 000000
2016-01-21 12:21:19,0.35,6.62,0.00,15.06,19.44,23.20,15.20,50.89,1032.00,2062.41,1782.89,1839.81,2062.42,599.83,621.52,59.16,0000 0000 0000 0000 000000
2016-01-21 12:26:20,0.24,6.64,0.00,15.08,19.47,23.19,15.25,50.84,1032.01,2062.24,1780.57,1837.92,2060.25,600.06,621.76,59.21,0000 0000 0000 0000 000000
2016-01-21 12:31:21,0.25,6.65,0.00,15.07,19.47,23.23,15.23,50.90,1031.77,2062.10,1778.34,1836.15,2058.25,599.75,621.30,59.26,0000 0000 0000 0000 000000
2016-01-21 12:36:22,0.28,6.66,0.00,15.10,19.49,23.22,15.26,51.08,1031.78,2062.06,1776.11,1834.37,2056.15,599.99,621.49,59.31,0000 0000 0000 0000 000000
2016-01-21 12:41:24,0.27,6.68,0.00,15.13,19.51,23.26,15.26,50.88,1031.76,2062.04,1773.81,1832.58,2054.16,600.19,621.59,59.36,0000 0000 0000 0000 000000
2016-01-21 12:46:25,0.25,6.69,0.00,15.16,19.52,23.26,15.26,50.80,1031.75,2062.02,1771.68,1830.91,2052.28,599.83,621.22,59.41,0000 0000 0000 0000 000000
2016-01-21 12:51:26,0.27,6.71,0.00,15.19,19.54,23.29,15.15,50.78,1031.74,2062.01,1769.39,1829.16,2050.28,599.66,620.94,59.46,0000 0000 0000 0000 000000
2016-01-21 12:56:27,0.26,6.72,0.00,15.21,19.55,23.30,15.17,50.78,1031.78,2062.00,1767.29,1827.39,2048.28,600.01,621.29,59.51,0000 0000 0000 0000 000000